Torna al catalogo

STARLINK-11710

AttivoComunicazioniVLEO
NORAD 64244·PAYLOAD·🇺🇸 United States

Lanciato Jun 3, 2025 da Cape Canaveral Space Force Station

Loading…

Prossimi Passaggi (prossime 24 ore)

TLE

AggiornatoSource: CelesTrak SupGP

Epoca: Sep 15, 2026, 02:48 UTC

1 64244C 25119M   26258.11715278  .00067248  00000+0  52220-3 0  2581
2 64244  43.0004 147.5145 0001629 267.9644 120.4109 15.70810504    15

Traccia STARLINK-11710 in tempo reale con AllMySat

Download on the App Store